KUIPER-00015 (63731 NORAD) Tracking and Keplerian Element Data

This shows tracking and keplerian element data for the satellite.

Feedback or suggestion? Click here.




ElementValue
Catalog63731
NameKUIPER-00015
Epoch Orbit3578
Epoch Day353.38274214
Epoch Year2025
RAAN115.0587
Inclination51.8988
Eccentricity0.0010764
Argument of Perigee167.9923
Mean Anonmoly192.1299
Mean Motion14.82016392
Decay Rate1.888E-05
L11 63731U 25088H 25353.38274214 .00001888 00000+0 26382-3 0 9990
L22 63731 51.8988 115.0587 0010764 167.9923 192.1299 14.82016392 35785



Live tracking and technical data element details for KUIPER-00015 (NORAD 63731). KUIPER-00015 can be tracked NOW for your location showing map with azimuth and elevation plus other details from your city location.







IsCatalogInMostPopularTable: catalog: 63731, numindb: 3
Update: records affected: 1



GetName: 63731 KUIPER-00015

Hit Count: updated at: Sat, 11 Apr 2026 20:00:38 GMT